K4FB Weather Reports


time (UTC)temp
C
wind
direction
speed
KPH
gust
KPH
rain 1hr
cm
rain 24hr
cm
rain mn
cm
humidity
%
barometer
mb
20260510032012 26 352 0.0 6.4 0.00 0.00 0.00 77 1016.2
20260510031004 26 54 1.6 8.0 0.00 0.00 0.00 76 1016.0
20260510030507 26 24 4.8 9.7 0.00 0.00 0.00 76 1016.0
20260510030032 26 28 4.8 9.7 0.00 0.00 0.00 76 1015.8
20260510025509 26 26 1.6 11.3 0.00 0.00 0.00 75 1015.9
20260510025009 26 27 3.2 11.3 0.00 0.00 0.00 75 1015.9
20260510024526 27 12 1.6 11.3 0.00 0.00 0.00 75 1015.8
20260510024005 27 42 4.8 11.3 0.00 0.00 0.00 74 1015.7
20260510023512 27 41 1.6 6.4 0.00 0.00 0.00 73 1015.7
20260510023026 27 360 0.0 8.0 0.00 0.00 0.00 72 1015.6
20260510022511 27 350 3.2 8.0 0.00 0.00 0.00 71 1015.5
20260510022008 27 29 1.6 14.5 0.00 0.00 0.00 70 1015.6
20260510021528 27 13 6.4 14.5 0.00 0.00 0.00 70 1015.5
20260510021008 27 12 1.6 12.9 0.00 0.00 0.00 64 1015.5
20260510020503 27 9 4.8 12.9 0.00 0.00 0.00 67 1015.5
20260510020025 27 360 3.2 8.0 0.00 0.00 0.00 72 1015.6
20260510015505 27 296 3.2 8.0 0.00 0.00 0.00 72 1015.6
20260510015006 27 333 4.8 9.7 0.00 0.00 0.00 73 1015.4
20260510014010 27 293 1.6 9.7 0.00 0.00 0.00 72 1015.2
20260510013512 27 284 3.2 9.7 0.00 0.00 0.00 72 1015.1
20260510013024 27 300 1.6 8.0 0.00 0.00 0.00 72 1015.0
20260510012509 27 323 3.2 12.9 0.00 0.00 0.00 71 1014.8
20260510012008 27 257 3.2 12.9 0.00 0.00 0.00 70 1014.6
20260510011525 27 248 1.6 11.3 0.00 0.00 0.00 70 1014.6
20260510011008 27 288 1.6 16.1 0.00 0.00 0.00 69 1014.6
20260510010507 28 247 3.2 16.1 0.00 0.00 0.00 68 1014.5
20260510010026 28 246 3.2 14.5 0.00 0.00 0.00 68 1014.4
20260510005512 28 297 6.4 14.5 0.00 0.00 0.00 66 1014.3
20260510004517 28 286 1.6 12.9 0.00 0.00 0.00 62 1014.1
20260510004004 28 337 6.4 16.1 0.00 0.00 0.00 61 1014.0
20260510003508 28 311 0.0 16.1 0.00 0.00 0.00 60 1014.0
20260510003013 28 264 4.8 16.1 0.00 0.00 0.00 60 1013.8
20260510002504 28 271 1.6 11.3 0.00 0.00 0.00 59 1013.7
20260510002003 28 255 4.8 14.5 0.00 0.00 0.00 59 1013.7
20260510001004 29 257 3.2 17.7 0.00 0.00 0.00 59 1013.5
20260510000504 29 308 8.0 17.7 0.00 0.00 0.00 57 1013.4
20260509235505 30 273 8.0 16.1 0.00 0.00 0.00 57 1013.4
20260509235004 30 275 8.0 14.5 0.00 0.00 0.00 57 1013.4
20260509234008 30 270 9.7 17.7 0.00 0.00 0.00 56 1013.4
20260509233504 30 248 4.8 14.5 0.00 0.00 0.00 55 1013.3
20260509233022 31 298 3.2 20.9 0.00 0.00 0.00 55 1013.2
20260509232513 31 260 6.4 20.9 0.00 0.00 0.00 55 1013.1
20260509232003 31 259 8.0 17.7 0.00 0.00 0.00 55 1013.2
20260509231505 31 236 8.0 17.7 0.00 0.00 0.00 54 1013.0
20260509231003 31 257 8.0 19.3 0.00 0.00 0.00 53 1012.9
20260509230503 32 208 6.4 19.3 0.00 0.00 0.00 51 1012.9
20260509230011 32 288 8.0 19.3 0.00 0.00 0.00 52 1012.9
20260509225504 33 254 11.3 22.5 0.00 0.00 0.00 48 1012.9
20260509225004 33 282 9.7 22.5 0.00 0.00 0.00 48 1012.8
20260509224507 33 259 4.8 24.1 0.00 0.00 0.00 48 1012.7
20260509224003 33 310 8.0 24.1 0.00 0.00 0.00 47 1012.5
20260509223506 33 247 11.3 24.1 0.00 0.00 0.00 47 1012.5
20260509222505 33 247 9.7 20.9 0.00 0.00 0.00 46 1012.5
20260509222005 34 236 12.9 22.5 0.00 0.00 0.00 44 1012.5
20260509221518 35 212 12.9 22.5 0.00 0.00 0.00 45 1012.5
20260509221015 35 246 11.3 20.9 0.00 0.00 0.00 45 1012.4
20260509220505 35 196 9.7 27.4 0.00 0.00 0.00 43 1012.4
20260509215504 35 232 16.1 22.5 0.00 0.00 0.00 43 1012.3
20260509215006 35 250 12.9 25.7 0.00 0.00 0.00 43 1012.3
20260509214005 34 203 16.1 27.4 0.00 0.00 0.00 45 1012.1
20260509213504 35 220 16.1 27.4 0.00 0.00 0.00 44 1012.0
20260509213011 35 244 11.3 30.6 0.00 0.00 0.00 45 1011.9
20260509212506 35 227 16.1 30.6 0.00 0.00 0.00 43 1011.9
20260509212010 36 236 12.9 29.0 0.00 0.00 0.00 43 1011.9
20260509211506 36 240 12.9 29.0 0.00 0.00 0.00 43 1011.8
20260509211003 36 221 12.9 29.0 0.00 0.00 0.00 42 1011.8
20260509210512 36 252 9.7 25.7 0.00 0.00 0.00 44 1011.7
20260509210023 36 252 14.5 30.6 0.00 0.00 0.00 43 1011.8
20260509205003 36 228 11.3 22.5 0.00 0.00 0.00 44 1011.8
20260509204508 36 296 11.3 22.5 0.00 0.00 0.00 46 1011.7
20260509204004 36 238 14.5 20.9 0.00 0.00 0.00 45 1011.7
20260509203503 36 236 9.7 24.1 0.00 0.00 0.00 47 1011.8
20260509202503 35 263 11.3 24.1 0.00 0.00 0.00 49 1011.8
20260509202006 34 272 9.7 24.1 0.00 0.00 0.00 49 1011.9
20260509201518 34 219 6.4 20.9 0.00 0.00 0.00 51 1012.0
20260509201007 34 239 14.5 20.9 0.00 0.00 0.00 48 1012.1
20260509200509 34 227 11.3 20.9 0.00 0.00 0.00 52 1012.3
20260509200011 34 234 12.9 27.4 0.00 0.00 0.00 49 1012.2
20260509195506 35 254 17.7 27.4 0.00 0.00 0.00 46 1012.3
20260509195008 36 215 9.7 24.1 0.00 0.00 0.00 46 1012.2
20260509194509 36 251 11.3 24.1 0.00 0.00 0.00 44 1012.3
20260509194007 36 244 12.9 22.5 0.00 0.00 0.00 45 1012.3
20260509193503 36 265 11.3 22.5 0.00 0.00 0.00 44 1012.3
20260509192507 36 247 14.5 24.1 0.00 0.00 0.00 46 1012.5
20260509192009 36 184 12.9 24.1 0.00 0.00 0.00 48 1012.7
20260509191006 35 225 9.7 24.1 0.00 0.00 0.00 46 1012.8
20260509190506 35 246 14.5 25.7 0.00 0.00 0.00 47 1012.9
20260509185507 35 218 14.5 24.1 0.00 0.00 0.00 47 1013.0
20260509185009 35 186 11.3 22.5 0.00 0.00 0.00 47 1013.1
20260509184529 35 194 9.7 20.9 0.00 0.00 0.00 47 1013.1
20260509184008 35 204 11.3 22.5 0.00 0.00 0.00 48 1013.3
20260509183016 36 188 6.4 25.7 0.00 0.00 0.00 41 1013.2
20260509182504 36 219 16.1 25.7 0.00 0.00 0.00 44 1013.3
20260509182007 36 176 9.7 24.1 0.00 0.00 0.00 47 1013.2
20260509181514 36 223 9.7 24.1 0.00 0.00 0.00 46 1013.4
20260509181007 36 237 9.7 24.1 0.00 0.00 0.00 44 1013.3
20260509180508 36 207 6.4 22.5 0.00 0.00 0.00 45 1013.4
20260509175505 36 197 9.7 25.7 0.00 0.00 0.00 46 1013.3
20260509174524 36 223 9.7 25.7 0.00 0.00 0.00 50 1013.5
20260509174005 35 192 8.0 25.7 0.00 0.00 0.00 47 1013.6
20260509173506 36 182 16.1 25.7 0.00 0.00 0.00 47 1013.7
20260509173024 35 191 11.3 27.4 0.00 0.00 0.00 51 1013.8
20260509172512 35 180 9.7 27.4 0.00 0.00 0.00 47 1013.8
20260509171520 34 209 11.3 22.5 0.00 0.00 0.00 52 1013.9
20260509171006 34 205 11.3 22.5 0.00 0.00 0.00 49 1014.0
20260509170504 34 209 12.9 20.9 0.00 0.00 0.00 51 1014.0
20260509165508 33 210 12.9 27.4 0.00 0.00 0.00 51 1014.0
20260509165008 33 211 9.7 27.4 0.00 0.00 0.00 52 1013.9
20260509164519 33 230 12.9 22.5 0.00 0.00 0.00 51 1014.1
20260509164009 33 163 8.0 25.7 0.00 0.00 0.00 49 1014.2
20260509163513 33 178 14.5 25.7 0.00 0.00 0.00 48 1014.2
20260509163011 34 212 12.9 22.5 0.00 0.00 0.00 50 1014.1
20260509162507 34 161 14.5 22.5 0.00 0.00 0.00 49 1014.1
20260509162008 35 213 11.3 22.5 0.00 0.00 0.00 49 1014.1
20260509161524 35 205 12.9 22.5 0.00 0.00 0.00 48 1014.2
20260509160507 34 214 9.7 24.1 0.00 0.00 0.00 51 1014.4
20260509155503 34 223 12.9 24.1 0.00 0.00 0.00 49 1014.4
20260509155006 34 181 11.3 24.1 0.00 0.00 0.00 48 1014.5
20260509154522 33 215 9.7 22.5 0.00 0.00 0.00 49 1014.4
20260509154004 33 198 8.0 20.9 0.00 0.00 0.00 51 1014.6
20260509153504 33 168 8.0 17.7 0.00 0.00 0.00 51 1014.7
20260509153011 33 192 4.8 14.5 0.00 0.00 0.00 55 1014.8
20260509152504 32 101 6.4 16.1 0.00 0.00 0.00 55 1014.8
20260509152004 32 187 8.0 16.1 0.00 0.00 0.00 53 1014.9
20260509151507 32 169 11.3 20.9 0.00 0.00 0.00 53 1014.9
20260509151003 32 194 9.7 20.9 0.00 0.00 0.00 57 1015.0
20260509150504 32 156 6.4 17.7 0.00 0.00 0.00 59 1015.0
20260509150011 31 207 9.7 17.7 0.00 0.00 0.00 57 1015.0
20260509145503 31 176 6.4 17.7 0.00 0.00 0.00 62 1015.0
20260509145002 31 204 9.7 14.5 0.00 0.00 0.00 63 1015.0
20260509144519 31 213 6.4 14.5 0.00 0.00 0.00 61 1015.0
20260509144008 30 190 3.2 12.9 0.00 0.00 0.00 64 1015.0
20260509143504 30 189 6.4 12.9 0.00 0.00 0.00 66 1015.1
20260509143006 30 196 1.6 8.0 0.00 0.00 0.00 70 1015.0
20260509142503 29 166 3.2 11.3 0.00 0.00 0.00 67 1014.9
20260509142001 29 175 4.8 9.7 0.00 0.00 0.00 72 1014.8
20260509141508 28 198 1.6 9.7 0.00 0.00 0.00 72 1015.0
20260509141005 28 146 3.2 9.7 0.00 0.00 0.00 73 1015.0
20260509140503 28 118 1.6 8.0 0.00 0.00 0.00 75 1015.1
20260509140007 27 128 0.0 3.2 0.00 0.00 0.00 75 1015.1
20260509135507 27 290 0.0 8.0 0.00 0.00 0.00 74 1015.2
20260509135004 27 72 1.6 8.0 0.00 0.00 0.00 78 1015.2
20260509134504 27 65 1.6 6.4 0.00 0.00 0.00 79 1015.2
20260509134004 26 201 1.6 6.4 0.00 0.00 0.00 79 1015.2
20260509133510 26 67 1.6 6.4 0.00 0.00 0.00 81 1015.2
20260509133022 26 63 0.0 6.4 0.00 0.00 0.00 80 1015.1
20260509132503 26 54 0.0 4.8 0.00 0.00 0.00 83 1015.0
20260509132002 26 157 0.0 4.8 0.00 0.00 0.00 83 1015.0
20260509131003 25 9 1.6 6.4 0.00 0.00 0.00 83 1015.0
20260509130504 25 55 1.6 4.8 0.00 0.00 0.00 88 1015.0
20260509130006 24 98 1.6 4.8 0.00 0.00 0.00 88 1015.0
20260509125504 24 13 0.0 3.2 0.00 0.00 0.00 90 1015.0
20260509125006 23 64 0.0 0.0 0.00 0.00 0.00 91 1015.0
20260509124512 23 188 0.0 0.0 0.00 0.00 0.00 93 1015.0
20260509124004 23 192 0.0 0.0 0.00 0.00 0.00 93 1014.9
20260509123507 23 190 0.0 0.0 0.00 0.00 0.00 94 1014.9
20260509123008 23 190 0.0 0.0 0.00 0.00 0.00 95 1014.8
20260509122505 23 190 0.0 1.6 0.00 0.00 0.00 96 1014.9
20260509122007 22 189 0.0 1.6 0.00 0.00 0.00 96 1014.9
20260509121003 22 189 0.0 3.2 0.00 0.00 0.00 96 1014.5
20260509120503 22 189 0.0 3.2 0.00 0.00 0.00 96 1014.5
20260509120006 22 189 0.0 4.8 0.00 0.00 0.00 96 1014.3
20260509115503 22 189 0.0 4.8 0.00 0.00 0.00 96 1014.4
20260509115004 22 190 0.0 6.4 0.00 0.00 0.00 96 1014.5
20260509114508 22 189 3.2 6.4 0.00 0.00 0.00 96 1014.3
20260509114004 21 182 0.0 3.2 0.00 0.00 0.00 96 1014.3
20260509113504 21 183 0.0 3.2 0.00 0.00 0.00 96 1014.2
20260509113016 21 182 0.0 3.2 0.00 0.00 0.00 96 1014.0
20260509112507 21 183 0.0 3.2 0.00 0.00 0.00 95 1013.9
20260509112004 21 207 0.0 0.0 0.00 0.00 0.00 95 1013.9
20260509111513 20 207 0.0 0.0 0.00 0.00 0.00 95 1013.8
20260509111006 20 207 0.0 0.0 0.00 0.00 0.00 95 1013.8
20260509110500 20 185 0.0 0.0 0.00 0.00 0.00 94 1013.7
20260509110019 20 185 0.0 0.0 0.00 0.00 0.00 94 1013.7
20260509105503 20 185 0.0 0.0 0.00 0.00 0.00 94 1013.6
20260509105003 20 185 0.0 0.0 0.00 0.00 0.00 94 1013.7
20260509104508 20 185 0.0 0.0 0.00 0.00 0.00 94 1013.5
20260509104006 21 185 0.0 0.0 0.00 0.00 0.00 94 1013.4
20260509103502 21 185 0.0 0.0 0.00 0.00 0.00 94 1013.4
20260509103017 21 185 0.0 0.0 0.00 0.00 0.00 94 1013.4
20260509102505 21 185 0.0 0.0 0.00 0.00 0.00 94 1013.4
20260509102008 21 185 0.0 0.0 0.00 0.00 0.00 94 1013.4
20260509101520 21 185 0.0 0.0 0.00 0.00 0.00 94 1013.4
20260509101004 21 185 0.0 0.0 0.00 0.00 0.00 93 1013.4
20260509100503 21 185 0.0 3.2 0.00 0.00 0.00 94 1013.5
20260509100023 21 185 0.0 3.2 0.00 0.00 0.00 93 1013.7
20260509095507 21 185 1.6 3.2 0.00 0.00 0.00 93 1013.6
20260509095010 21 281 0.0 0.0 0.00 0.00 0.00 93 1013.5
20260509094521 21 281 0.0 0.0 0.00 0.00 0.00 93 1013.3
20260509094003 21 281 0.0 0.0 0.00 0.00 0.00 93 1013.5
20260509093504 21 281 0.0 0.0 0.00 0.00 0.00 93 1013.7
20260509093013 21 281 0.0 0.0 0.00 0.00 0.00 93 1013.5
20260509092507 21 281 0.0 0.0 0.00 0.00 0.00 93 1013.6
20260509092007 21 281 0.0 0.0 0.00 0.00 0.00 93 1013.6
20260509091512 21 281 0.0 4.8 0.00 0.00 0.00 94 1013.4
20260509091007 21 281 0.0 6.4 0.00 0.00 0.00 94 1013.6
20260509090507 21 287 3.2 6.4 0.00 0.00 0.00 93 1013.6
20260509090010 21 292 0.0 1.6 0.00 0.00 0.00 92 1013.8
20260509085503 21 291 0.0 0.0 0.00 0.00 0.00 91 1013.7
20260509085006 21 291 0.0 0.0 0.00 0.00 0.00 92 1013.7
20260509084533 21 291 0.0 0.0 0.00 0.00 0.00 92 1013.8
20260509084005 21 291 0.0 0.0 0.00 0.00 0.00 91 1013.7
20260509083033 21 291 0.0 0.0 0.00 0.00 0.00 91 1013.8
20260509082509 22 291 0.0 0.0 0.00 0.00 0.00 91 1013.8
20260509082006 22 291 0.0 0.0 0.00 0.00 0.00 91 1013.9
20260509081516 22 291 0.0 0.0 0.00 0.00 0.00 91 1013.9
20260509081008 22 291 0.0 0.0 0.00 0.00 0.00 90 1013.9
20260509080504 22 291 0.0 0.0 0.00 0.00 0.00 90 1013.9
20260509080032 22 291 0.0 0.0 0.00 0.00 0.00 90 1014.0
20260509075509 22 291 0.0 0.0 0.00 0.00 0.00 90 1014.1
20260509075007 22 291 0.0 0.0 0.00 0.00 0.00 90 1014.1
20260509074516 22 291 0.0 0.0 0.00 0.00 0.00 89 1014.1
20260509074007 22 291 0.0 0.0 0.00 0.00 0.00 90 1014.1
20260509073507 22 291 0.0 0.0 0.00 0.00 0.00 89 1014.1
20260509072508 23 292 0.0 0.0 0.00 0.00 0.00 88 1014.2
20260509072010 23 292 0.0 0.0 0.00 0.00 0.00 88 1014.1
20260509071513 23 292 0.0 3.2 0.00 0.00 0.00 88 1014.2
20260509071003 23 292 0.0 3.2 0.00 0.00 0.00 88 1014.2
20260509070504 23 292 0.0 3.2 0.00 0.00 0.00 88 1014.3
20260509070020 23 290 0.0 4.8 0.00 0.00 0.00 88 1014.3
20260509065505 23 290 0.0 6.4 0.00 0.00 0.00 87 1014.3
20260509065007 23 286 1.6 6.4 0.00 0.00 0.00 87 1014.4
20260509064525 23 305 0.0 4.8 0.00 0.00 0.00 87 1014.5
20260509064008 23 305 0.0 4.8 0.00 0.00 0.00 87 1014.5
20260509063506 23 315 0.0 8.0 0.00 0.00 0.00 87 1014.5
20260509063020 23 314 0.0 8.0 0.00 0.00 0.00 87 1014.5
20260509062511 23 305 1.6 6.4 0.00 0.00 0.00 87 1014.5
20260509062009 23 314 1.6 6.4 0.00 0.00 0.00 86 1014.6
20260509061522 24 330 1.6 9.7 0.00 0.00 0.00 86 1014.7
20260509061007 24 323 3.2 9.7 0.00 0.00 0.00 86 1014.5
20260509060508 24 325 3.2 8.0 0.00 0.00 0.00 86 1014.7
20260509060013 24 317 1.6 8.0 0.00 0.00 0.00 86 1014.8
20260509055507 24 306 3.2 8.0 0.00 0.00 0.00 86 1014.9
20260509055007 24 321 1.6 8.0 0.00 0.00 0.00 85 1014.9
20260509054520 24 312 1.6 8.0 0.00 0.00 0.00 85 1014.9
20260509054005 24 298 0.0 6.4 0.00 0.00 0.00 85 1015.0
20260509053507 24 312 0.0 4.8 0.00 0.00 0.00 85 1015.1
20260509053030 24 296 0.0 6.4 0.00 0.00 0.00 85 1015.2
20260509052008 24 279 0.0 6.4 0.00 0.00 0.00 84 1015.2
20260509051525 24 300 1.6 6.4 0.00 0.00 0.00 84 1015.3
20260509051009 24 310 1.6 6.4 0.00 0.00 0.00 83 1015.3
20260509050505 25 295 1.6 6.4 0.00 0.00 0.00 83 1015.4
20260509050035 25 284 0.0 4.8 0.00 0.00 0.00 83 1015.4
20260509045508 25 297 0.0 6.4 0.00 0.00 0.00 82 1015.6
20260509045004 25 288 1.6 6.4 0.00 0.00 0.00 82 1015.6
20260509044520 25 274 1.6 6.4 0.00 0.00 0.00 82 1015.6
20260509044007 25 336 0.0 12.9 0.00 0.00 0.00 81 1015.6
20260509043504 25 311 1.6 12.9 0.00 0.00 0.00 81 1015.8
20260509043020 25 324 1.6 8.0 0.00 0.00 0.00 80 1015.8
20260509042508 25 298 0.0 8.0 0.00 0.00 0.00 80 1015.8
20260509042008 25 311 3.2 14.5 0.00 0.00 0.00 79 1015.9
20260509041526 25 305 3.2 14.5 0.00 0.00 0.00 79 1015.8
20260509041007 25 313 4.8 12.9 0.00 0.00 0.00 78 1015.8
20260509040507 25 292 3.2 9.7 0.00 0.00 0.00 78 1015.9
20260509040028 25 352 4.8 12.9 0.00 0.00 0.00 77 1015.9
20260509035507 25 292 1.6 14.5 0.00 0.00 0.00 77 1015.8
20260509035007 25 333 4.8 14.5 0.00 0.00 0.00 76 1015.9
20260509034527 26 302 8.0 16.1 0.00 0.00 0.00 76 1015.9
20260509034010 26 329 3.2 16.1 0.00 0.00 0.00 75 1015.9
20260509033507 26 350 4.8 14.5 0.00 0.00 0.00 73 1015.8
20260509033018 26 317 4.8 14.5 0.00 0.00 0.00 73 1015.9
20260509032510 26 341 4.8 16.1 0.00 0.00 0.00 71 1015.8